GW3601 Weather Reports


time (UTC)temp
F
wind
direction
speed
knots
gust
knots
rain 1hr
in
rain 24hr
in
rain mn
in
humidity
%
barometer
mb
20260505064031 48 45 0.9 1.7 0.00 0.01 0.00 31 1019.3
20260505063130 48 45 0.0 1.7 0.00 0.01 0.00 31 1019.4
20260505061131 46 45 0.0 0.9 0.00 0.01 0.00 35 1019.2
20260505060133 44 45 0.0 0.0 0.00 0.01 0.00 38 1019.0
20260505055118 43 45 0.0 0.0 0.00 0.01 0.01 43 1019.2
20260505054117 43 45 0.0 0.9 0.00 0.01 0.01 44 1018.9
20260505050216 43 45 0.0 0.0 0.00 0.01 0.01 42 1019.0
20260505041216 45 45 0.0 0.0 0.00 0.01 0.01 37 1018.8
20260505040215 46 45 0.0 0.0 0.00 0.01 0.01 37 1018.9
20260505035215 46 45 0.0 0.0 0.00 0.01 0.01 38 1018.9
20260505034219 46 45 0.0 0.0 0.00 0.01 0.01 37 1018.7
20260505033216 46 45 0.0 0.0 0.00 0.01 0.01 36 1018.8
20260505032216 46 45 0.0 0.0 0.00 0.01 0.01 35 1018.9
20260505031217 47 45 0.0 0.0 0.00 0.01 0.01 34 1018.3
20260505030217 48 45 0.0 0.0 0.00 0.01 0.01 33 1018.4
20260505025217 49 45 0.0 0.0 0.00 0.01 0.01 33 1018.5
20260505024216 49 45 0.0 0.0 0.00 0.01 0.01 33 1018.6
20260505022231 50 45 0.0 0.9 0.00 0.01 0.01 30 1018.7
20260505021315 51 45 0.0 0.0 0.00 0.01 0.01 31 1018.7
20260505020315 52 45 0.0 0.0 0.00 0.01 0.01 29 1018.5
20260505015414 52 45 0.0 0.0 0.00 0.01 0.01 30 1018.5
20260505014416 53 45 0.0 0.0 0.00 0.01 0.01 28 1018.3
20260505012515 55 45 0.0 0.0 0.00 0.01 0.01 29 1018.7
20260505011517 55 45 0.0 0.0 0.00 0.01 0.01 27 1018.7
20260505005515 56 45 0.0 0.9 0.00 0.01 0.01 26 1018.9
20260505004516 57 45 0.0 1.7 0.00 0.01 0.01 27 1018.9
20260505003518 57 45 0.0 0.9 0.00 0.01 0.01 27 1018.9
20260505002515 57 45 0.0 0.0 0.00 0.01 0.01 27 1018.9
20260505000515 57 45 0.0 0.0 0.00 0.01 0.01 26 1018.9
20260504235615 57 45 0.0 0.0 0.00 0.01 0.01 26 1019.3
20260504233617 58 45 0.9 1.7 0.00 0.01 0.01 24 1019.6
20260504231616 59 45 0.0 0.0 0.00 0.01 0.01 23 1019.8
20260504230715 58 45 0.0 0.9 0.00 0.01 0.01 23 1019.8
20260504225717 58 45 0.9 3.5 0.00 0.01 0.01 25 1020.0
20260504223816 59 45 0.9 1.7 0.00 0.01 0.01 28 1020.0
20260504222815 59 45 0.9 2.6 0.00 0.01 0.01 26 1019.9
20260504220915 59 45 0.0 1.7 0.00 0.01 0.01 27 1019.9
20260504214915 59 45 0.9 3.5 0.00 0.01 0.01 27 1019.9
20260504213918 59 45 0.9 1.7 0.00 0.01 0.01 27 1020.0
20260504211916 60 45 1.7 2.6 0.00 0.01 0.01 29 1020.5
20260504211014 60 45 0.0 1.7 0.00 0.01 0.01 32 1020.6
20260504210017 59 45 0.9 1.7 0.00 0.01 0.01 32 1020.5
20260504204115 58 45 0.9 2.6 0.00 0.01 0.01 34 1020.8
20260504203115 59 45 0.9 1.7 0.00 0.01 0.01 36 1021.1
20260504202214 58 45 0.0 1.7 0.00 0.01 0.01 36 1021.0
20260504201216 57 45 0.9 2.6 0.00 0.01 0.01 37 1021.1
20260504200217 57 45 0.9 4.3 0.00 0.01 0.01 38 1021.3
20260504195216 57 45 0.9 2.6 0.00 0.01 0.01 38 1021.3
20260504192216 57 45 0.0 2.6 0.00 0.01 0.01 38 1021.4
20260504191314 57 45 0.9 3.5 0.00 0.01 0.01 39 1021.6
20260504190318 57 45 0.9 2.6 0.00 0.01 0.01 39 1021.5
20260504185415 57 45 1.7 2.6 0.00 0.01 0.01 40 1021.7
20260504184416 58 45 0.9 0.9 0.00 0.01 0.01 41 1021.7
20260504181416 57 45 0.0 0.9 0.00 0.01 0.01 43 1022.0
20260504180415 57 45 0.0 0.0 0.00 0.01 0.01 42 1022.1
20260504174516 55 45 0.9 1.7 0.00 0.01 0.01 41 1022.2
20260504173615 55 45 0.0 0.9 0.00 0.01 0.01 43 1022.3
20260504172615 55 67 0.0 0.9 0.00 0.01 0.01 46 1022.2
20260504171715 55 67 0.0 0.9 0.00 0.01 0.01 47 1022.3
20260504170715 54 67 0.0 1.7 0.00 0.01 0.01 49 1022.3
20260504151118 47 67 0.0 0.0 0.00 0.01 0.01 74 1022.2
20260504141215 43 67 0.0 0.0 0.00 0.01 0.01 80 1022.2
20260504140232 43 67 0.0 0.0 0.00 0.01 0.01 80 1022.2
20260504130316 39 67 0.0 0.0 0.00 0.01 0.01 80 1021.4
20260504110516 39 67 0.0 0.0 0.00 0.01 0.01 81 1021.1
20260504100516 42 67 0.0 0.0 0.01 0.01 0.01 76 1021.5
20260504081017 48 67 1.7 3.5 0.00 0.00 0.00 60 1022.3
20260504070115 44 67 0.0 0.0 0.00 0.00 0.00 70 1021.7